Time,TemperatureF,DewpointF,PressureIn,WindDirection,WindDirectionDegrees,WindSpeedMPH,WindSpeedGustMPH,Humidity,HourlyPrecipIn,Conditions,Clouds,dailyrainin,SoftwareType,DateUTC
2013-01-02 00:10:00,17.2,12.9,30.22,NNE,22,0.0,0.0,83,0.00,,,0.00,Wunderground v.1.15,2013-01-02 06:10:00,
2013-01-02 00:15:00,17.2,13.2,30.22,NNE,22,0.0,0.0,84,0.00,,,0.00,Wunderground v.1.15,2013-01-02 06:15:00,
2013-01-02 00:20:00,17.0,13.0,30.24,NNE,22,0.0,0.0,84,0.00,,,0.00,Wunderground v.1.15,2013-01-02 06:20:00,
2013-01-02 00:30:00,16.7,12.7,30.24,NNE,22,0.0,0.0,84,0.00,,,0.00,Wunderground v.1.15,2013-01-02 06:30:00,
2013-01-02 00:35:00,16.5,12.5,30.23,NNE,22,0.0,0.0,84,0.00,,,0.00,Wunderground v.1.15,2013-01-02 06:35:00,
2013-01-02 00:44:00,16.4,12.4,30.23,NNE,22,0.0,0.0,84,0.00,,,0.00,Wunderground v.1.15,2013-01-02 06:44:00,
2013-01-02 00:49:00,16.4,12.4,30.23,NNE,22,0.0,0.0,84,0.00,,,0.00,Wunderground v.1.15,2013-01-02 06:49:00,
2013-01-02 00:54:00,16.4,12.7,30.23,NNE,22,0.0,0.0,85,0.00,,,0.00,Wunderground v.1.15,2013-01-02 06:54:00,
2013-01-02 01:00:00,16.2,12.5,30.23,NNE,22,0.0,0.0,85,0.00,,,0.00,Wunderground v.1.15,2013-01-02 07:00:00,
2013-01-02 01:09:00,16.1,12.4,30.23,NNE,22,0.0,0.0,85,0.00,,,0.00,Wunderground v.1.15,2013-01-02 07:09:00,
2013-01-02 01:14:00,15.9,12.2,30.23,NNE,22,0.0,0.0,85,0.00,,,0.00,Wunderground v.1.15,2013-01-02 07:14:00,
2013-01-02 01:19:00,15.9,12.2,30.23,NNE,22,0.0,0.0,85,0.00,,,0.00,Wunderground v.1.15,2013-01-02 07:19:00,
2013-01-02 01:29:00,15.9,12.2,30.23,NNE,22,0.0,0.0,85,0.00,,,0.00,Wunderground v.1.15,2013-01-02 07:29:00,
2013-01-02 01:39:00,15.7,12.0,30.23,NNE,22,0.0,0.0,85,0.00,,,0.00,Wunderground v.1.15,2013-01-02 07:39:00,
2013-01-02 01:44:00,15.7,12.3,30.23,NNE,22,0.0,0.0,86,0.00,,,0.00,Wunderground v.1.15,2013-01-02 07:44:00,
2013-01-02 01:55:00,15.6,12.2,30.24,NNE,22,0.0,0.0,86,0.00,,,0.00,Wunderground v.1.15,2013-01-02 07:55:00,
2013-01-02 02:05:00,15.4,12.0,30.25,NNE,22,0.0,0.0,86,0.00,,,0.00,Wunderground v.1.15,2013-01-02 08:05:00,
2013-01-02 02:14:00,15.2,11.8,30.25,NNE,22,0.0,0.0,86,0.00,,,0.00,Wunderground v.1.15,2013-01-02 08:14:00,
2013-01-02 02:19:00,15.1,11.7,30.25,NNE,22,0.0,0.0,86,0.00,,,0.00,Wunderground v.1.15,2013-01-02 08:19:00,
2013-01-02 02:29:00,15.2,11.8,30.25,NNE,22,0.0,0.0,86,0.00,,,0.00,Wunderground v.1.15,2013-01-02 08:29:00,
2013-01-02 02:35:00,15.2,11.8,30.26,NNE,22,0.0,0.0,86,0.00,,,0.00,Wunderground v.1.15,2013-01-02 08:35:00,
2013-01-02 02:44:00,15.1,11.7,30.26,NNE,22,0.0,0.0,86,0.00,,,0.00,Wunderground v.1.15,2013-01-02 08:44:00,
2013-01-02 02:50:00,14.9,11.5,30.26,NNE,22,0.0,0.0,86,0.00,,,0.00,Wunderground v.1.15,2013-01-02 08:50:00,
2013-01-02 02:59:00,14.8,11.4,30.26,NNE,22,0.0,0.0,86,0.00,,,0.00,Wunderground v.1.15,2013-01-02 08:59:00,
2013-01-02 03:05:00,14.6,11.2,30.26,NNE,22,0.0,0.0,86,0.00,,,0.00,Wunderground v.1.15,2013-01-02 09:05:00,
2013-01-02 03:15:00,14.3,10.9,30.26,NNE,22,0.0,0.0,86,0.00,,,0.00,Wunderground v.1.15,2013-01-02 09:15:00,
2013-01-02 03:20:00,14.1,10.7,30.26,NNE,22,0.0,0.0,86,0.00,,,0.00,Wunderground v.1.15,2013-01-02 09:20:00,
2013-01-02 03:30:00,14.1,10.7,30.26,NNE,22,0.0,0.0,86,0.00,,,0.00,Wunderground v.1.15,2013-01-02 09:30:00,
2013-01-02 03:39:00,14.1,10.7,30.25,NNE,22,0.0,0.0,86,0.00,,,0.00,Wunderground v.1.15,2013-01-02 09:39:00,
2013-01-02 03:49:00,14.3,10.9,30.25,NNE,22,0.0,0.0,86,0.00,,,0.00,Wunderground v.1.15,2013-01-02 09:49:00,
2013-01-02 03:55:00,14.1,10.7,30.25,NNE,22,0.0,0.0,86,0.00,,,0.00,Wunderground v.1.15,2013-01-02 09:55:00,
2013-01-02 04:05:00,14.1,10.7,30.25,NNE,22,0.0,0.0,86,0.00,,,0.00,Wunderground v.1.15,2013-01-02 10:05:00,
2013-01-02 04:14:00,14.0,10.6,30.25,NNE,22,0.0,0.0,86,0.00,,,0.00,Wunderground v.1.15,2013-01-02 10:14:00,
2013-01-02 04:24:00,14.0,10.6,30.24,NNE,22,0.0,0.0,86,0.00,,,0.00,Wunderground v.1.15,2013-01-02 10:24:00,
2013-01-02 04:35:00,13.8,10.4,30.25,NNE,22,0.0,0.0,86,0.00,,,0.00,Wunderground v.1.15,2013-01-02 10:35:00,
2013-01-02 04:45:00,13.6,10.2,30.25,NNE,22,0.0,0.0,86,0.00,,,0.00,Wunderground v.1.15,2013-01-02 10:45:00,
2013-01-02 04:54:00,13.8,10.4,30.25,NNE,22,0.0,0.0,86,0.00,,,0.00,Wunderground v.1.15,2013-01-02 10:54:00,
2013-01-02 05:04:00,14.3,11.1,30.24,NNE,22,0.0,0.0,87,0.00,,,0.00,Wunderground v.1.15,2013-01-02 11:04:00,
2013-01-02 05:10:00,14.4,11.0,30.24,NNE,22,0.0,0.0,86,0.00,,,0.00,Wunderground v.1.15,2013-01-02 11:10:00,
2013-01-02 05:20:00,14.4,11.0,30.25,NNE,22,0.0,0.0,86,0.00,,,0.00,Wunderground v.1.15,2013-01-02 11:20:00,
2013-01-02 05:29:00,14.3,10.9,30.25,NNE,22,0.0,0.0,86,0.00,,,0.00,Wunderground v.1.15,2013-01-02 11:29:00,
2013-01-02 05:39:00,14.0,10.6,30.25,NNE,22,0.0,0.0,86,0.00,,,0.00,Wunderground v.1.15,2013-01-02 11:39:00,
2013-01-02 05:45:00,14.0,10.6,30.25,NNE,22,0.0,0.0,86,0.00,,,0.00,Wunderground v.1.15,2013-01-02 11:45:00,
2013-01-02 05:54:00,13.5,10.1,30.26,NNE,22,0.0,0.0,86,0.00,,,0.00,Wunderground v.1.15,2013-01-02 11:54:00,
2013-01-02 06:05:00,13.5,10.1,30.25,NNE,22,0.0,0.0,86,0.00,,,0.00,Wunderground v.1.15,2013-01-02 12:05:00,
2013-01-02 06:15:00,13.3,9.9,30.25,NNE,22,0.0,0.0,86,0.00,,,0.00,Wunderground v.1.15,2013-01-02 12:15:00,
2013-01-02 06:20:00,13.1,9.7,30.25,NNE,22,0.0,0.0,86,0.00,,,0.00,Wunderground v.1.15,2013-01-02 12:20:00,
2013-01-02 06:30:00,12.9,9.2,30.25,NNE,22,0.0,0.0,85,0.00,,,0.00,Wunderground v.1.15,2013-01-02 12:30:00,
2013-01-02 06:39:00,12.9,9.5,30.25,NNE,22,0.0,0.0,86,0.00,,,0.00,Wunderground v.1.15,2013-01-02 12:39:00,
2013-01-02 06:50:00,12.8,9.4,30.25,NNE,22,0.0,0.0,86,0.00,,,0.00,Wunderground v.1.15,2013-01-02 12:50:00,
2013-01-02 07:00:00,12.8,9.1,30.25,NNE,22,0.0,0.0,85,0.00,,,0.00,Wunderground v.1.15,2013-01-02 13:00:00,
2013-01-02 07:05:00,12.6,8.9,30.25,NNE,22,0.0,0.0,85,0.00,,,0.00,Wunderground v.1.15,2013-01-02 13:05:00,
2013-01-02 07:14:00,12.8,9.1,30.25,NNE,22,0.0,0.0,85,0.00,,,0.00,Wunderground v.1.15,2013-01-02 13:14:00,
2013-01-02 07:24:00,12.9,9.5,30.25,NNE,22,0.0,0.0,86,0.00,,,0.00,Wunderground v.1.15,2013-01-02 13:24:00,
2013-01-02 07:29:00,13.1,9.7,30.25,NNE,22,0.0,0.0,86,0.00,,,0.00,Wunderground v.1.15,2013-01-02 13:29:00,
2013-01-02 07:39:00,13.5,10.1,30.24,NNE,22,0.0,0.0,86,0.00,,,0.00,Wunderground v.1.15,2013-01-02 13:39:00,
2013-01-02 07:45:00,13.5,10.1,30.24,NNE,22,0.0,0.0,86,0.00,,,0.00,Wunderground v.1.15,2013-01-02 13:45:00,
2013-01-02 07:54:00,14.0,10.6,30.24,NNE,22,0.0,0.0,86,0.00,,,0.00,Wunderground v.1.15,2013-01-02 13:54:00,
2013-01-02 08:05:00,14.8,11.4,30.23,NNE,22,0.0,0.0,86,0.00,,,0.00,Wunderground v.1.15,2013-01-02 14:05:00,
2013-01-02 08:14:00,15.6,12.4,30.23,NNE,22,0.0,0.0,87,0.00,,,0.00,Wunderground v.1.15,2013-01-02 14:14:00,
2013-01-02 08:25:00,16.4,13.2,30.23,NNE,22,0.0,0.0,87,0.00,,,0.00,Wunderground v.1.15,2013-01-02 14:25:00,
2013-01-02 08:34:00,17.2,14.0,30.23,NNE,22,0.0,0.0,87,0.00,,,0.00,Wunderground v.1.15,2013-01-02 14:34:00,
2013-01-02 08:44:00,18.3,15.1,30.23,NNE,22,0.0,0.0,87,0.00,,,0.00,Wunderground v.1.15,2013-01-02 14:44:00,
2013-01-02 08:50:00,19.2,16.0,30.24,NNE,22,0.0,0.0,87,0.00,,,0.00,Wunderground v.1.15,2013-01-02 14:50:00,
2013-01-02 09:00:00,20.6,17.3,30.24,NNE,22,0.0,0.0,87,0.00,,,0.00,Wunderground v.1.15,2013-01-02 15:00:00,
2013-01-02 09:05:00,21.1,17.6,30.24,NNE,22,0.0,0.0,86,0.00,,,0.00,Wunderground v.1.15,2013-01-02 15:05:00,
2013-01-02 09:14:00,21.9,17.5,30.24,NNE,22,1.0,1.0,83,0.00,,,0.00,Wunderground v.1.15,2013-01-02 15:14:00,
2013-01-02 09:24:00,22.4,17.7,30.24,NNE,33,1.0,1.0,82,0.00,,,0.00,Wunderground v.1.15,2013-01-02 15:24:00,
2013-01-02 09:30:00,22.5,17.3,30.24,ESE,106,2.0,2.0,80,0.00,,,0.00,Wunderground v.1.15,2013-01-02 15:30:00,
2013-01-02 09:39:00,22.9,17.4,30.24,South,172,2.0,2.0,79,0.00,,,0.00,Wunderground v.1.15,2013-01-02 15:39:00,
2013-01-02 09:49:00,24.1,18.5,30.24,South,170,2.0,2.0,79,0.00,,,0.00,Wunderground v.1.15,2013-01-02 15:49:00,
2013-01-02 09:59:00,25.4,18.3,30.24,SSE,163,1.0,1.0,74,0.00,,,0.00,Wunderground v.1.15,2013-01-02 15:59:00,
2013-01-02 10:05:00,25.8,18.7,30.24,SSE,163,2.0,2.0,74,0.00,,,0.00,Wunderground v.1.15,2013-01-02 16:05:00,
2013-01-02 10:15:00,26.1,18.3,30.24,South,172,2.0,4.0,72,0.00,,,0.00,Wunderground v.1.15,2013-01-02 16:15:00,
2013-01-02 10:24:00,26.4,18.3,30.24,South,184,2.0,2.0,71,0.00,,,0.00,Wunderground v.1.15,2013-01-02 16:24:00,
2013-01-02 10:35:00,27.3,17.8,30.24,South,188,3.0,4.0,67,0.00,,,0.00,Wunderground v.1.15,2013-01-02 16:35:00,
2013-01-02 10:44:00,27.5,18.3,30.24,South,171,2.0,3.0,68,0.00,,,0.00,Wunderground v.1.15,2013-01-02 16:44:00,
2013-01-02 10:54:00,28.5,17.9,30.24,SSE,167,2.0,4.0,64,0.00,,,0.00,Wunderground v.1.15,2013-01-02 16:54:00,
2013-01-02 11:04:00,28.4,17.4,30.23,SW,223,3.0,5.0,63,0.00,,,0.00,Wunderground v.1.15,2013-01-02 17:04:00,
2013-01-02 11:10:00,28.4,17.4,30.23,South,174,3.0,3.0,63,0.00,,,0.00,Wunderground v.1.15,2013-01-02 17:10:00,
2013-01-02 11:15:00,28.4,18.1,30.23,South,171,3.0,3.0,65,0.00,,,0.00,Wunderground v.1.15,2013-01-02 17:15:00,
2013-01-02 11:24:00,29.1,18.4,30.23,SSW,199,2.0,3.0,64,0.00,,,0.00,Wunderground v.1.15,2013-01-02 17:24:00,
2013-01-02 11:34:00,29.7,19.7,30.22,SSE,157,2.0,4.0,66,0.00,,,0.00,Wunderground v.1.15,2013-01-02 17:34:00,
2013-01-02 11:40:00,29.8,19.1,30.22,SSW,193,3.0,5.0,64,0.00,,,0.00,Wunderground v.1.15,2013-01-02 17:40:00,
2013-01-02 11:49:00,30.0,17.4,30.22,South,173,3.0,4.0,59,0.00,,,0.00,Wunderground v.1.15,2013-01-02 17:49:00,
2013-01-02 11:59:00,30.1,16.3,30.22,SSE,159,3.0,4.0,56,0.00,,,0.00,Wunderground v.1.15,2013-01-02 17:59:00,
2013-01-02 12:05:00,30.1,14.6,30.21,South,175,3.0,4.0,52,0.00,,,0.00,Wunderground v.1.15,2013-01-02 18:05:00,
2013-01-02 12:14:00,30.7,15.6,30.21,SSE,164,3.0,3.0,53,0.00,,,0.00,Wunderground v.1.15,2013-01-02 18:14:00,
2013-01-02 12:20:00,30.7,15.1,30.20,South,170,3.0,3.0,52,0.00,,,0.00,Wunderground v.1.15,2013-01-02 18:20:00,
2013-01-02 12:29:00,31.3,15.7,30.20,South,182,3.0,3.0,52,0.00,,,0.00,Wunderground v.1.15,2013-01-02 18:29:00,
2013-01-02 12:39:00,31.8,17.5,30.20,WSW,241,3.0,3.0,55,0.00,,,0.00,Wunderground v.1.15,2013-01-02 18:39:00,
2013-01-02 12:45:00,31.9,17.5,30.20,SSW,207,2.0,5.0,55,0.00,,,0.00,Wunderground v.1.15,2013-01-02 18:45:00,
2013-01-02 12:54:00,31.6,18.5,30.19,South,182,2.0,3.0,58,0.00,,,0.00,Wunderground v.1.15,2013-01-02 18:54:00,
2013-01-02 13:05:00,31.9,20.7,30.18,South,182,2.0,2.0,63,0.00,,,0.00,Wunderground v.1.15,2013-01-02 19:05:00,
2013-01-02 13:14:00,32.2,20.6,30.18,SSW,204,2.0,3.0,62,0.00,,,0.00,Wunderground v.1.15,2013-01-02 19:14:00,
2013-01-02 13:24:00,32.1,21.3,30.18,WSW,240,1.0,2.0,64,0.00,,,0.00,Wunderground v.1.15,2013-01-02 19:24:00,
2013-01-02 13:29:00,32.5,21.3,30.18,NW,313,1.0,3.0,63,0.00,,,0.00,Wunderground v.1.15,2013-01-02 19:29:00,
2013-01-02 13:35:00,32.7,21.1,30.18,West,277,1.0,3.0,62,0.00,,,0.00,Wunderground v.1.15,2013-01-02 19:35:00,
2013-01-02 13:44:00,32.4,20.0,30.18,South,181,1.0,1.0,60,0.00,,,0.00,Wunderground v.1.15,2013-01-02 19:44:00,
2013-01-02 13:49:00,32.1,20.5,30.17,South,173,2.0,2.0,62,0.00,,,0.00,Wunderground v.1.15,2013-01-02 19:49:00,
2013-01-02 13:55:00,31.9,20.3,30.17,ESE,119,2.0,3.0,62,0.00,,,0.00,Wunderground v.1.15,2013-01-02 19:55:00,
2013-01-02 14:00:00,32.4,20.4,30.17,SE,126,1.0,1.0,61,0.00,,,0.00,Wunderground v.1.15,2013-01-02 20:00:00,
2013-01-02 14:09:00,32.4,19.7,30.16,South,179,1.0,3.0,59,0.00,,,0.00,Wunderground v.1.15,2013-01-02 20:09:00,
2013-01-02 14:14:00,32.2,18.7,30.16,South,181,2.0,3.0,57,0.00,,,0.00,Wunderground v.1.15,2013-01-02 20:14:00,
2013-01-02 14:20:00,32.5,19.3,30.16,West,261,2.0,2.0,58,0.00,,,0.00,Wunderground v.1.15,2013-01-02 20:20:00,
2013-01-02 14:30:00,32.7,19.1,30.16,West,261,1.0,2.0,57,0.00,,,0.00,Wunderground v.1.15,2013-01-02 20:30:00,
2013-01-02 14:39:00,33.1,19.1,30.15,South,175,1.0,1.0,56,0.00,,,0.00,Wunderground v.1.15,2013-01-02 20:39:00,
2013-01-02 14:44:00,33.4,18.9,30.15,South,179,2.0,2.0,55,0.00,,,0.00,Wunderground v.1.15,2013-01-02 20:44:00,
2013-01-02 14:50:00,33.2,18.3,30.16,SSE,167,3.0,4.0,54,0.00,,,0.00,Wunderground v.1.15,2013-01-02 20:50:00,
2013-01-02 14:59:00,33.1,17.8,30.16,WSW,247,2.0,2.0,53,0.00,,,0.00,Wunderground v.1.15,2013-01-02 20:59:00,
2013-01-02 15:05:00,33.2,17.5,30.16,South,172,2.0,2.0,52,0.00,,,0.00,Wunderground v.1.15,2013-01-02 21:05:00,
2013-01-02 15:14:00,34.0,17.7,30.16,SSW,203,1.0,3.0,51,0.00,,,0.00,Wunderground v.1.15,2013-01-02 21:14:00,
2013-01-02 15:20:00,34.4,18.6,30.17,South,188,1.0,4.0,52,0.00,,,0.00,Wunderground v.1.15,2013-01-02 21:20:00,
2013-01-02 15:25:00,34.3,17.1,30.17,SSW,208,2.0,4.0,49,0.00,,,0.00,Wunderground v.1.15,2013-01-02 21:25:00,
2013-01-02 15:34:00,33.8,14.7,30.17,South,170,2.0,3.0,45,0.00,,,0.00,Wunderground v.1.15,2013-01-02 21:34:00,
2013-01-02 15:39:00,34.1,15.5,30.17,SSW,207,2.0,2.0,46,0.00,,,0.00,Wunderground v.1.15,2013-01-02 21:39:00,
2013-01-02 15:49:00,34.3,13.6,30.17,SSW,202,3.0,3.0,42,0.00,,,0.00,Wunderground v.1.15,2013-01-02 21:49:00,
2013-01-02 15:54:00,34.0,13.3,30.17,WSW,244,3.0,3.0,42,0.00,,,0.00,Wunderground v.1.15,2013-01-02 21:54:00,
2013-01-02 16:00:00,33.8,13.6,30.17,SSW,197,2.0,2.0,43,0.00,,,0.00,Wunderground v.1.15,2013-01-02 22:00:00,
2013-01-02 16:05:00,33.7,14.6,30.17,SSW,210,2.0,2.0,45,0.00,,,0.00,Wunderground v.1.15,2013-01-02 22:05:00,
2013-01-02 16:14:00,33.7,15.1,30.17,WSW,244,2.0,2.0,46,0.00,,,0.00,Wunderground v.1.15,2013-01-02 22:14:00,
2013-01-02 16:19:00,33.7,14.6,30.17,SSW,201,2.0,2.0,45,0.00,,,0.00,Wunderground v.1.15,2013-01-02 22:19:00,
2013-01-02 16:29:00,33.5,15.4,30.17,SW,216,1.0,3.0,47,0.00,,,0.00,Wunderground v.1.15,2013-01-02 22:29:00,
2013-01-02 16:39:00,33.4,15.8,30.17,WSW,242,1.0,1.0,48,0.00,,,0.00,Wunderground v.1.15,2013-01-02 22:39:00,
2013-01-02 16:44:00,33.2,16.1,30.17,WSW,242,1.0,1.0,49,0.00,,,0.00,Wunderground v.1.15,2013-01-02 22:44:00,
2013-01-02 16:54:00,32.8,16.6,30.17,WSW,242,0.0,0.0,51,0.00,,,0.00,Wunderground v.1.15,2013-01-02 22:54:00,
2013-01-02 17:00:00,32.5,16.4,30.17,WSW,242,0.0,0.0,51,0.00,,,0.00,Wunderground v.1.15,2013-01-02 23:00:00,
2013-01-02 17:05:00,32.4,16.3,30.17,WSW,242,0.0,0.0,51,0.00,,,0.00,Wunderground v.1.15,2013-01-02 23:05:00,
2013-01-02 17:10:00,32.2,16.5,30.17,WSW,242,0.0,0.0,52,0.00,,,0.00,Wunderground v.1.15,2013-01-02 23:10:00,
2013-01-02 17:19:00,31.5,18.4,30.17,WSW,242,0.0,0.0,58,0.00,,,0.00,Wunderground v.1.15,2013-01-02 23:19:00,
2013-01-02 17:24:00,31.0,17.9,30.17,WSW,242,0.0,0.0,58,0.00,,,0.00,Wunderground v.1.15,2013-01-02 23:24:00,
2013-01-02 17:34:00,29.8,18.0,30.19,WSW,242,0.0,0.0,61,0.00,,,0.00,Wunderground v.1.15,2013-01-02 23:34:00,
2013-01-02 17:45:00,28.8,18.5,30.19,WSW,242,0.0,0.0,65,0.00,,,0.00,Wunderground v.1.15,2013-01-02 23:45:00,
2013-01-02 17:54:00,27.8,18.3,30.19,WSW,242,0.0,0.0,67,0.00,,,0.00,Wunderground v.1.15,2013-01-02 23:54:00,
2013-01-02 18:00:00,27.5,18.3,30.19,WSW,242,0.0,0.0,68,0.00,,,0.00,Wunderground v.1.15,2013-01-03 00:00:00,
2013-01-02 18:09:00,27.0,18.2,30.20,WSW,242,0.0,0.0,69,0.00,,,0.00,Wunderground v.1.15,2013-01-03 00:09:00,
2013-01-02 18:15:00,27.0,18.2,30.20,WSW,242,0.0,0.0,69,0.00,,,0.00,Wunderground v.1.15,2013-01-03 00:15:00,
2013-01-02 18:24:00,26.3,18.5,30.20,WSW,242,0.0,0.0,72,0.00,,,0.00,Wunderground v.1.15,2013-01-03 00:24:00,
2013-01-02 18:30:00,25.8,18.0,30.20,WSW,242,0.0,0.0,72,0.00,,,0.00,Wunderground v.1.15,2013-01-03 00:30:00,
2013-01-02 18:39:00,25.3,17.9,30.21,WSW,242,0.0,0.0,73,0.00,,,0.00,Wunderground v.1.15,2013-01-03 00:39:00,
2013-01-02 18:44:00,24.8,17.7,30.21,WSW,242,0.0,0.0,74,0.00,,,0.00,Wunderground v.1.15,2013-01-03 00:44:00,
2013-01-02 18:49:00,24.7,17.9,30.21,WSW,242,0.0,0.0,75,0.00,,,0.00,Wunderground v.1.15,2013-01-03 00:49:00,
2013-01-02 18:54:00,24.4,17.6,30.21,WSW,242,0.0,0.0,75,0.00,,,0.00,Wunderground v.1.15,2013-01-03 00:54:00,
2013-01-02 18:59:00,24.2,17.7,30.21,WSW,242,0.0,0.0,76,0.00,,,0.00,Wunderground v.1.15,2013-01-03 00:59:00,
2013-01-02 19:05:00,24.1,17.6,30.22,WSW,242,0.0,0.0,76,0.00,,,0.00,Wunderground v.1.15,2013-01-03 01:05:00,
2013-01-02 19:14:00,23.8,17.6,30.22,WSW,242,0.0,0.0,77,0.00,,,0.00,Wunderground v.1.15,2013-01-03 01:14:00,
2013-01-02 19:19:00,23.6,17.7,30.22,WSW,242,0.0,0.0,78,0.00,,,0.00,Wunderground v.1.15,2013-01-03 01:19:00,
2013-01-02 19:25:00,23.5,17.9,30.22,WSW,242,0.0,0.0,79,0.00,,,0.00,Wunderground v.1.15,2013-01-03 01:25:00,
2013-01-02 19:30:00,23.2,17.7,30.22,WSW,242,0.0,0.0,79,0.00,,,0.00,Wunderground v.1.15,2013-01-03 01:30:00,
2013-01-02 19:39:00,23.0,17.5,30.22,WSW,242,0.0,0.0,79,0.00,,,0.00,Wunderground v.1.15,2013-01-03 01:39:00,
2013-01-02 19:44:00,22.7,17.2,30.22,WSW,242,0.0,0.0,79,0.00,,,0.00,Wunderground v.1.15,2013-01-03 01:44:00,
2013-01-02 19:55:00,22.2,17.0,30.23,WSW,242,0.0,0.0,80,0.00,,,0.00,Wunderground v.1.15,2013-01-03 01:55:00,
2013-01-02 20:05:00,22.1,17.2,30.23,WSW,242,0.0,0.0,81,0.00,,,0.00,Wunderground v.1.15,2013-01-03 02:05:00,
2013-01-02 20:14:00,21.9,17.2,30.23,WSW,242,0.0,0.0,82,0.00,,,0.00,Wunderground v.1.15,2013-01-03 02:14:00,
2013-01-02 20:24:00,21.9,17.2,30.23,WSW,242,0.0,0.0,82,0.00,,,0.00,Wunderground v.1.15,2013-01-03 02:24:00,
2013-01-02 20:29:00,21.9,17.5,30.23,WSW,242,0.0,0.0,83,0.00,,,0.00,Wunderground v.1.15,2013-01-03 02:29:00,
2013-01-02 20:39:00,22.1,17.7,30.23,WSW,242,0.0,0.0,83,0.00,,,0.00,Wunderground v.1.15,2013-01-03 02:39:00,
2013-01-02 20:45:00,22.2,17.8,30.23,WSW,242,0.0,0.0,83,0.00,,,0.00,Wunderground v.1.15,2013-01-03 02:45:00,
2013-01-02 20:55:00,22.2,17.8,30.24,WSW,242,0.0,0.0,83,0.00,,,0.00,Wunderground v.1.15,2013-01-03 02:55:00,
2013-01-02 21:05:00,21.8,17.4,30.24,WSW,242,0.0,0.0,83,0.00,,,0.00,Wunderground v.1.15,2013-01-03 03:05:00,
2013-01-02 21:15:00,21.3,16.9,30.24,WSW,242,0.0,0.0,83,0.00,,,0.00,Wunderground v.1.15,2013-01-03 03:15:00,
2013-01-02 21:25:00,21.0,16.6,30.23,WSW,242,0.0,0.0,83,0.00,,,0.00,Wunderground v.1.15,2013-01-03 03:25:00,
2013-01-02 21:34:00,20.5,16.2,30.23,WSW,242,0.0,0.0,83,0.00,,,0.00,Wunderground v.1.15,2013-01-03 03:34:00,
2013-01-02 21:40:00,20.5,16.4,30.23,WSW,242,0.0,0.0,84,0.00,,,0.00,Wunderground v.1.15,2013-01-03 03:40:00,
2013-01-02 21:50:00,20.2,15.9,30.24,WSW,242,0.0,0.0,83,0.00,,,0.00,Wunderground v.1.15,2013-01-03 03:50:00,
2013-01-02 21:59:00,19.9,15.8,30.24,WSW,242,0.0,0.0,84,0.00,,,0.00,Wunderground v.1.15,2013-01-03 03:59:00,
2013-01-02 22:04:00,19.7,15.6,30.24,WSW,242,0.0,0.0,84,0.00,,,0.00,Wunderground v.1.15,2013-01-03 04:04:00,
2013-01-02 22:14:00,19.4,15.4,30.24,WSW,242,0.0,0.0,84,0.00,,,0.00,Wunderground v.1.15,2013-01-03 04:14:00,
2013-01-02 22:20:00,19.2,15.2,30.24,WSW,242,0.0,0.0,84,0.00,,,0.00,Wunderground v.1.15,2013-01-03 04:20:00,
2013-01-02 22:34:00,19.7,15.9,30.25,WSW,242,0.0,0.0,85,0.00,,,0.00,Wunderground v.1.15,2013-01-03 04:34:00,
2013-01-02 22:45:00,20.3,16.8,30.25,WSW,242,0.0,0.0,86,0.00,,,0.00,Wunderground v.1.15,2013-01-03 04:45:00,
2013-01-02 22:50:00,20.6,17.1,30.25,WSW,242,0.0,0.0,86,0.00,,,0.00,Wunderground v.1.15,2013-01-03 04:50:00,
2013-01-02 22:55:00,21.0,17.5,30.25,WSW,242,0.0,0.0,86,0.00,,,0.00,Wunderground v.1.15,2013-01-03 04:55:00,
2013-01-02 23:05:00,21.8,18.5,30.25,WSW,242,0.0,0.0,87,0.00,,,0.00,Wunderground v.1.15,2013-01-03 05:05:00,
2013-01-02 23:09:00,21.9,18.6,30.25,WSW,242,0.0,0.0,87,0.00,,,0.00,Wunderground v.1.15,2013-01-03 05:09:00,
2013-01-02 23:14:00,22.2,18.9,30.25,WSW,242,0.0,0.0,87,0.00,,,0.00,Wunderground v.1.15,2013-01-03 05:14:00,
2013-01-02 23:19:00,22.7,19.4,30.24,WSW,242,0.0,0.0,87,0.00,,,0.00,Wunderground v.1.15,2013-01-03 05:19:00,
2013-01-02 23:29:00,22.9,19.6,30.24,WSW,242,0.0,0.0,87,0.00,,,0.00,Wunderground v.1.15,2013-01-03 05:29:00,
2013-01-02 23:34:00,23.0,19.7,30.24,WSW,242,0.0,0.0,87,0.00,,,0.00,Wunderground v.1.15,2013-01-03 05:34:00,
2013-01-02 23:39:00,22.9,19.3,30.24,WSW,242,0.0,0.0,86,0.00,,,0.00,Wunderground v.1.15,2013-01-03 05:39:00,
2013-01-02 23:44:00,22.7,19.1,30.24,WSW,242,0.0,0.0,86,0.00,,,0.00,Wunderground v.1.15,2013-01-03 05:44:00,
2013-01-02 23:49:00,22.5,18.9,30.24,WSW,242,0.0,0.0,86,0.00,,,0.00,Wunderground v.1.15,2013-01-03 05:49:00,